Weather reports worldwide

Advertisment
Lecce, Italy (16333): temperature & dewpoint: 10.08.2018 13:00:00 - 16.08.2018 13:00:00 (CEST)Lecce, Italy (16333): wind speed: 10.08.2018 13:00:00 - 16.08.2018 13:00:00 (CEST)Lecce, Italy (16333): wind direction: 10.08.2018 13:00:00 - 16.08.2018 13:00:00 (CEST)Lecce, Italy (16333): reduced air pressure: 10.08.2018 13:00:00 - 16.08.2018 13:00:00 (CEST)Lecce, Italy (16333): precipitation: 10.08.2018 13:00:00 - 16.08.2018 13:00:00 (CEST)
Date & Time tt [°C] td [°C] ff [km/h] ff [kn] dd ppp [hPa] rr [mm]
16.08.2018 13:00:00 20,4 19,5 28 15 S 1013,0 -
16.08.2018 12:00:00 23,4 18,0 41 22 SSE 1012,1 -
16.08.2018 11:00:00 28,1 23,4 24 13 NNW 1011,0 -
16.08.2018 10:00:00 26,9 23,3 28 15 N 1010,6 -
16.08.2018 09:00:00 24,9 23,6 16 9 NNW 1010,5 -
16.08.2018 08:00:00 23,0 22,4 21 11 NNW 1010,5 0,0
16.08.2018 07:00:00 21,6 21,1 11 6 NW 1010,5 -
16.08.2018 06:00:00 20,8 19,9 11 6 NNW 1010,4 -
16.08.2018 05:00:00 21,0 20,1 11 6 NNW 1010,4 -
16.08.2018 04:00:00 21,5 20,6 13 7 NW 1010,5 -
16.08.2018 03:00:00 20,8 19,6 9 5 NNW 1011,2 -
16.08.2018 02:00:00 21,2 20,0 4 2 NNE 1011,3 0,0
16.08.2018 01:00:00 21,3 19,7 4 2 WNW 1011,6 -
16.08.2018 00:00:00 22,3 20,7 2 1 NW 1011,9 -
15.08.2018 23:00:00 23,0 21,4 2 1 NE 1011,8 -
15.08.2018 22:00:00 23,2 21,6 11 6 NNW 1011,8 -
15.08.2018 21:00:00 24,1 21,9 11 6 N 1011,3 -
15.08.2018 20:00:00 26,0 21,4 15 8 NE 1011,1 0,0
15.08.2018 19:00:00 28,2 20,4 21 11 NNW 1010,2 -
15.08.2018 18:00:00 30,5 19,5 16 9 W 1009,9 -
15.08.2018 17:00:00 30,7 20,6 11 6 SSW 1010,0 -
15.08.2018 16:00:00 29,1 21,0 26 14 WSW 1010,0 -
15.08.2018 15:00:00 30,7 23,1 28 15 SW 1009,5 -
15.08.2018 14:00:00 31,9 22,0 11 6 SW 1009,9 0,0
15.08.2018 13:00:00 30,2 21,5 8 4 W 1010,1 -
15.08.2018 12:00:00 29,7 23,4 21 11 SW 1010,6 -
15.08.2018 11:00:00 29,5 23,4 24 13 SW 1010,7 -
15.08.2018 10:00:00 28,6 23,2 22 12 W 1010,7 -
15.08.2018 09:00:00 27,3 25,5 15 8 NNW 1010,8 -
15.08.2018 08:00:00 24,9 23,8 15 8 NNW 1010,2 0,0
15.08.2018 07:00:00 22,5 21,4 4 2 N 1009,5 -
15.08.2018 06:00:00 22,6 21,5 9 5 NNW 1009,5 -
15.08.2018 05:00:00 22,1 21,0 11 6 NNW 1009,9 -
15.08.2018 04:00:00 22,8 21,7 5 3 N 1009,9 -
15.08.2018 03:00:00 22,4 21,0 9 5 NW 1010,3 -
15.08.2018 02:00:00 23,1 21,7 2 1 SW 1010,4 0,0
15.08.2018 01:00:00 24,2 22,6 9 5 NNW 1010,6 -
15.08.2018 00:00:00 24,6 23,5 13 7 NW 1010,7 -
14.08.2018 23:00:00 26,0 24,7 5 3 SW 1010,6 -
14.08.2018 22:00:00 26,6 25,1 8 4 WSW 1010,6 -
14.08.2018 21:00:00 27,4 24,4 9 5 SSE 1010,4 -
14.08.2018 20:00:00 29,3 24,6 15 8 SSW 1010,2 -
14.08.2018 19:00:00 31,0 24,1 15 8 SSE 1009,7 -
14.08.2018 18:00:00 32,0 23,2 16 9 SSE 1009,3 -
14.08.2018 17:00:00 31,2 21,3 16 9 E 1009,9 -
14.08.2018 16:00:00 27,4 22,5 28 15 ESE 1010,4 -
14.08.2018 15:00:00 30,7 26,9 21 11 WSW 1010,2 -
14.08.2018 14:00:00 32,8 24,0 9 5 NW 1010,7 0,0
14.08.2018 13:00:00 32,0 24,6 15 8 SSE 1011,3 -
14.08.2018 12:00:00 31,0 24,8 15 8 S 1011,6 -
14.08.2018 11:00:00 29,3 24,4 9 5 SSE 1012,0 -
14.08.2018 10:00:00 28,2 25,6 4 2 SSW 1011,9 -
14.08.2018 09:00:00 26,9 25,8 13 7 SE 1011,9 -
14.08.2018 08:00:00 25,8 25,4 9 5 SE 1011,7 0,0
14.08.2018 07:00:00 23,5 22,9 5 3 ENE 1011,6 -
14.08.2018 06:00:00 22,1 21,4 2 1 NE 1011,3 -
14.08.2018 05:00:00 21,6 20,7 2 1 NNE 1011,1 -
14.08.2018 04:00:00 22,4 21,5 0 0 N 1011,0 -
14.08.2018 03:00:00 23,1 22,2 4 2 ENE 1011,0 -
14.08.2018 02:00:00 23,1 21,8 2 1 N 1011,6 0,0
14.08.2018 01:00:00 23,9 22,6 4 2 ENE 1011,8 -
14.08.2018 00:00:00 24,8 23,4 9 5 SSE 1011,9 -
13.08.2018 23:00:00 26,2 24,7 4 2 SSE 1012,0 -
13.08.2018 22:00:00 26,6 24,2 11 6 S 1011,9 -
13.08.2018 21:00:00 27,9 23,2 13 7 S 1011,8 -
13.08.2018 20:00:00 29,8 22,2 21 11 S 1011,3 0,0
13.08.2018 19:00:00 31,7 21,8 26 14 S 1011,1 -
13.08.2018 18:00:00 33,1 21,3 24 13 S 1011,3 -
13.08.2018 17:00:00 33,1 22,2 28 15 SSW 1011,7 -
13.08.2018 16:00:00 34,0 22,1 21 11 SW 1012,0 -
13.08.2018 15:00:00 35,2 21,1 16 9 SW 1012,6 -
13.08.2018 14:00:00 35,0 20,9 18 10 WSW 1013,0 0,0
13.08.2018 13:00:00 33,9 23,0 18 10 SW 1013,5 -
13.08.2018 12:00:00 33,1 22,5 13 7 WSW 1013,7 -
13.08.2018 11:00:00 32,4 22,8 11 6 S 1014,0 -
13.08.2018 10:00:00 30,8 24,7 11 6 SE 1013,9 -
13.08.2018 09:00:00 29,1 25,2 8 4 SE 1013,8 -
13.08.2018 08:00:00 25,9 25,3 5 3 ESE 1013,6 0,0
13.08.2018 07:00:00 22,7 22,0 4 2 E 1013,8 -
13.08.2018 06:00:00 22,3 21,6 4 2 ESE 1013,3 -
13.08.2018 05:00:00 22,4 21,5 2 1 SE 1013,5 -
13.08.2018 04:00:00 23,0 22,1 0 0 N 1013,8 -
13.08.2018 03:00:00 23,4 22,5 0 0 N 1014,0 -
13.08.2018 02:00:00 24,6 23,7 0 0 N 1014,4 0,0
13.08.2018 01:00:00 24,5 23,2 2 1 SE 1014,6 -
13.08.2018 00:00:00 25,4 24,0 2 1 SW 1014,6 -
12.08.2018 23:00:00 26,3 24,8 0 0 N 1014,8 -
12.08.2018 22:00:00 27,0 25,5 9 5 WSW 1014,8 -
12.08.2018 21:00:00 27,9 25,5 15 8 WSW 1014,7 -
12.08.2018 20:00:00 30,5 18,9 4 2 N 1014,1 0,0
12.08.2018 19:00:00 32,3 18,5 11 6 NNE 1014,0 -
12.08.2018 18:00:00 32,8 18,9 13 7 NNE 1014,4 -
12.08.2018 17:00:00 33,6 20,0 21 11 NE 1014,3 -
12.08.2018 16:00:00 34,0 22,1 18 10 NE 1014,6 -
12.08.2018 15:00:00 33,8 23,2 18 10 N 1015,1 -
12.08.2018 14:00:00 33,6 23,6 18 10 NNE 1015,6 0,0
12.08.2018 13:00:00 33,0 22,7 16 9 W 1015,9 -
12.08.2018 12:00:00 32,1 23,1 21 11 N 1016,1 -
12.08.2018 11:00:00 31,4 23,5 18 10 N 1016,0 -
12.08.2018 10:00:00 30,3 24,9 11 6 N 1016,0 -
12.08.2018 09:00:00 28,8 26,8 15 8 N 1015,7 -
12.08.2018 08:00:00 27,0 26,5 9 5 NNE 1015,6 0,0
12.08.2018 07:00:00 23,1 22,2 4 2 N 1015,5 -
12.08.2018 06:00:00 22,4 21,3 4 2 NW 1015,2 -
12.08.2018 05:00:00 22,7 21,6 2 1 W 1015,1 -
12.08.2018 04:00:00 23,5 22,4 4 2 N 1015,2 -
12.08.2018 03:00:00 23,0 21,8 11 6 WNW 1015,3 -
12.08.2018 02:00:00 23,7 22,6 11 6 NW 1015,5 0,0
12.08.2018 01:00:00 24,1 23,0 8 4 WNW 1015,2 -
12.08.2018 00:00:00 25,1 23,8 4 2 WNW 1015,4 -
11.08.2018 23:00:00 25,8 24,2 5 3 NNW 1015,6 -
11.08.2018 22:00:00 27,3 25,3 9 5 NNW 1015,8 -
11.08.2018 21:00:00 28,2 25,4 13 7 N 1015,6 -
11.08.2018 20:00:00 29,4 25,1 13 7 N 1014,9 0,0
11.08.2018 19:00:00 30,1 24,9 16 9 NNW 1014,8 -
11.08.2018 18:00:00 32,2 24,2 22 12 N 1014,8 -
11.08.2018 17:00:00 32,8 23,7 22 12 N 1014,8 -
11.08.2018 16:00:00 33,3 23,9 28 15 N 1014,8 -
11.08.2018 15:00:00 33,8 24,7 24 13 N 1015,0 -
11.08.2018 14:00:00 33,3 25,5 24 13 N 1015,5 0,0
11.08.2018 13:00:00 33,0 25,5 21 11 NW 1016,0 -
11.08.2018 12:00:00 31,8 25,9 18 10 NNW 1016,4 -
11.08.2018 11:00:00 31,5 24,6 21 11 NNE 1016,7 -
11.08.2018 10:00:00 30,3 25,3 18 10 NNE 1016,7 -
11.08.2018 09:00:00 28,4 27,2 15 8 NNW 1016,7 -
11.08.2018 08:00:00 25,6 25,0 5 3 NNE 1016,7 0,0
11.08.2018 07:00:00 21,9 21,0 2 1 WSW 1016,6 -
11.08.2018 06:00:00 21,1 20,0 4 2 NNE 1016,4 -
11.08.2018 05:00:00 21,1 19,9 2 1 NW 1016,7 -
11.08.2018 04:00:00 21,6 20,4 0 0 N 1016,8 -
11.08.2018 03:00:00 22,2 20,6 4 2 NW 1016,9 -
11.08.2018 02:00:00 22,4 20,4 0 0 N 1017,3 0,0
11.08.2018 01:00:00 23,0 20,8 0 0 N 1017,6 -
11.08.2018 00:00:00 23,8 21,3 5 3 W 1017,6 -
10.08.2018 23:00:00 24,8 21,3 0 0 N 1017,6 -
10.08.2018 22:00:00 26,1 21,5 4 2 WNW 1017,7 -
10.08.2018 21:00:00 28,3 22,0 13 7 N 1017,1 -
10.08.2018 20:00:00 29,8 20,9 16 9 N 1017,0 0,0
10.08.2018 19:00:00 32,1 20,7 18 10 N 1016,3 -
10.08.2018 18:00:00 32,9 21,4 16 9 ENE 1016,1 -
10.08.2018 17:00:00 33,6 21,4 22 12 NNE 1016,1 -
10.08.2018 16:00:00 33,9 21,7 22 12 N 1016,5 -
10.08.2018 15:00:00 33,7 21,2 24 13 N 1016,7 -
10.08.2018 14:00:00 33,5 22,9 21 11 N 1016,9 0,0
10.08.2018 13:00:00 33,7 22,5 16 9 N 1017,0 -

tt = temperature
td = dewpoint
ff = wind speed
dd = wind direction
ppp = reduced air pressure
rr = precipitation

Next stations